Home > Weather > Wertheim > Past weeks

Flag for Germany Past Weather in Wertheim, Baden-Württemberg, Germany — Yesterday and Last 2 Weeks

Now
55 °F

Overcast.


Feels Like: 55 °F
Forecast: 47 / 70 °F
Wind: 2 mph from Northeast

Location: Niederstetten

Current Time: May 25, 2016 at 3:14:18 PM

Latest Report: May 25, 2016 at 2:20 PM


Visibility: N/A

Pressure: 29.98 "Hg

Humidity: 82%

Dew Point: 50 °F

Location of WertheimLocation

Past Weather in Wertheim — Graph

°F

Wertheim Temperature Yesterday

Maximum temperature yesterday: 50 °F (at 12:20 AM)
Minimum temperature yesterday: 48 °F (at 3:20 AM)
Average temperature yesterday: 49 °F

High & Low Weather Summary for the Past Weeks

 TemperatureHumidityPressure
High77 °F (May 22, 1:20 PM)100% (May 23, 11:20 PM)30.15 "Hg (May 23, 11:20 PM)
Low37 °F (May 15, 5:20 AM)38% (May 22, 12:20 PM)29.45 "Hg (May 12, 7:20 PM)
Average53 °F76%29.89 "Hg
* Reported May 10 1:20 PM — May 25 1:20 PM, Wertheim, Weather by CustomWeather, © 2016

Note: Actual official high and low records may vary slightly from our data, if they occured in-between our weather recording intervals... More about our weather records

Advertising

Wertheim Weather History for the Previous 24 Hours

Scroll right to see more
 ConditionsComfort  
Time TempWeatherWind HumidityBarometerVisibility
1:20 PM
Wed, May 25
54 °FLow clouds.1 mph82%29.98 "HgN/A
12:20 PM52 °FLow clouds.2 mph88%29.98 "HgN/A
11:20 AM52 °FMostly cloudy.3 mph88%29.98 "HgN/A
10:20 AM52 °FMostly cloudy.2 mph88%29.98 "HgN/A
9:20 AM50 °FMostly cloudy.2 mph94%29.98 "Hg4 mi
8:20 AM50 °FMostly cloudy.No wind88%29.98 "Hg4 mi
7:20 AM48 °FMostly cloudy.1 mph94%29.98 "Hg4 mi
6:20 AM48 °FFog.No wind94%29.95 "Hg2 mi
5:20 AM48 °FFog.1 mph94%29.95 "Hg1 mi
4:20 AM48 °FFog.1 mph94%29.95 "Hg1 mi
3:20 AM48 °FDrizzle. Fog.2 mph94%29.98 "Hg1 mi
2:20 AM48 °FDrizzle. Fog.1 mph94%29.98 "Hg1 mi
1:20 AM48 °FFog.3 mph94%29.98 "Hg2 mi
12:20 AM48 °FFog.3 mph94%29.98 "Hg1 mi
11:20 PM
Tue, May 24
48 °FFog.5 mph94%29.98 "Hg2 mi
10:20 PM48 °FFog.5 mph100%29.98 "Hg2 mi
9:20 PM48 °FDrizzle. Fog.7 mph100%29.98 "Hg1 mi
8:20 PM48 °FDrizzle. Fog.6 mph100%29.95 "Hg1 mi
7:20 PM48 °FDrizzle. Fog.5 mph100%29.95 "Hg1 mi
6:50 PM50 °FDrizzle. Fog.6 mph94%29.95 "Hg1 mi
6:20 PM50 °FDrizzle. Fog.6 mph94%29.95 "Hg2 mi
5:20 PM50 °FDrizzle. Mostly cloudy.6 mph94%29.95 "Hg3 mi
5:00 PM50 °FDrizzle. Mostly cloudy.7 mph94%29.95 "Hg4 mi
4:20 PM50 °FMostly cloudy.6 mph94%29.95 "HgN/A
3:20 PM50 °FLight rain. Mostly cloudy.7 mph94%29.95 "HgN/A
Weather by CustomWeather, © 2016

See weather overviewHow to use our weather pages